Vagabond Aaf / Yakim, WA

2:55 AM PST on November 19, 2017 (GMT -0800)
Vagabond Aaf / Yakim

Weather History for K1YT - March, 2014

Change the Weather History Date:

Saturday, March 22, 2014

  Actual Average (KYKM) Record (KYKM)
Temperature  
Mean Temperature 38 °F -  
Max Temperature 55 °F 59 °F 75 °F (1960)
Min Temperature 23 °F 32 °F 17 °F (1994)
Degree Days  
Heating Degree Days 26    
Moisture  
Dew Point 18 °F    
Average Humidity 47    
Maximum Humidity 77    
Minimum Humidity 24    
Precipitation  
Precipitation 0.00 in - - ()
Sea Level Pressure  
Sea Level Pressure 30.24 in    
Wind  
Wind Speed 4 mph (SSW)    
Max Wind Speed 12 mph    
Max Gust Speed 18 mph    
Visibility 12 miles    
Events      
Averages and records for this station are not official NWS values.
T = Trace of Precipitation, MM = Missing Value Source: NWS Daily Summary

Daily Weather History Graph

Daily Weather History Graph

Search for Another Location

Airport or City:

Trip Planner

Search our weather history database for the weather conditions in past years. The results will help you decide how hot, cold, wet, or windy it might be!

Date:

Astronomy

Mar. 22, 2014 Rise Set
Actual Time 7:00 AM PDT 7:17 PM PDT
Civil Twilight 6:30 AM PDT 7:47 PM PDT
Nautical Twilight 5:54 AM PDT 8:23 PM PDT
Astronomical Twilight 5:18 AM PDT 9:00 PM PDT
Moon 12:58 AM PDT (3/22) 10:30 AM PDT (3/22)
Length of Visible Light 13h 17m
Length of Day
12h 16m
Waning Gibbous, 64% of the Moon is Illuminated
Mar 22
Waning Gibbous
Mar 23
Last Quarter
Mar 30
New
Apr 7
First Quarter
Apr 15
Full

Hourly Weather History & Observations

Time (PDT) Temp. Windchill Dew Point Humidity Pressure Visibility Wind Dir Wind Speed Gust Speed Precip Events Conditions
12:56 AM 28.9 °F - 14.9 °F 56% 30.28 in 12.0 mi Variable 2.3 mph - N/A   Clear
1:56 AM 28.6 °F 24.8 °F 15.3 °F 58% 30.29 in 12.0 mi SW 3.5 mph - N/A   Partly Cloudy
2:56 AM 29.8 °F - 15.3 °F 55% 30.29 in 12.0 mi South 1.2 mph - N/A   Clear
3:56 AM 25.7 °F 21.5 °F 15.6 °F 66% 30.29 in 12.0 mi NNW 3.5 mph - N/A   Clear
4:56 AM 26.2 °F - 17.8 °F 70% 30.31 in 12.0 mi Variable 2.3 mph - N/A   Mostly Cloudy
5:56 AM 24.3 °F - 17.4 °F 75% 30.31 in 12.0 mi ENE 2.3 mph - N/A   Partly Cloudy
6:56 AM 23.9 °F 19.5 °F 17.8 °F 77% 30.32 in 12.0 mi SSW 3.5 mph - N/A   Clear
7:56 AM 28.2 °F - 19.8 °F 71% 30.32 in 12.0 mi West 1.2 mph - N/A   Clear
8:56 AM 30.0 °F - 20.7 °F 68% 30.32 in 12.0 mi Variable 2.3 mph - N/A   Clear
9:56 AM 36.9 °F 34.3 °F 23.0 °F 57% 30.32 in 12.0 mi NW 3.5 mph - N/A   Clear
10:56 AM 42.4 °F 40.7 °F 24.1 °F 48% 30.31 in 12.0 mi Variable 3.5 mph - N/A   Clear
11:56 AM 48.0 °F - 18.1 °F 31% 30.29 in 12.0 mi South 8.1 mph - N/A   Clear
12:56 PM 51.6 °F - 17.2 °F 26% 30.26 in 12.0 mi SSW 9.2 mph 15.0 mph N/A   Clear
1:56 PM 53.1 °F - 17.8 °F 25% 30.24 in 12.0 mi SSW 10.4 mph 18.4 mph N/A   Clear
2:56 PM 53.6 °F - 17.4 °F 24% 30.21 in 12.0 mi West 5.8 mph - N/A   Clear
3:56 PM 54.9 °F - 18.1 °F 24% 30.18 in 12.0 mi SW 11.5 mph 16.1 mph N/A   Clear
4:56 PM 54.5 °F - 18.7 °F 25% 30.16 in 12.0 mi SW 9.2 mph - N/A   Clear
5:56 PM 53.6 °F - 17.6 °F 24% 30.15 in 12.0 mi SSE 8.1 mph - N/A   Clear
6:56 PM 50.4 °F - 18.0 °F 28% 30.14 in 12.0 mi SE 5.8 mph - N/A   Clear
7:56 PM 46.4 °F 44.3 °F 16.7 °F 31% 30.14 in 12.0 mi East 4.6 mph - N/A   Partly Cloudy
8:56 PM 40.6 °F 38.6 °F 17.4 °F 39% 30.15 in 12.0 mi NNE 3.5 mph - N/A   Scattered Clouds
9:56 PM 41.0 °F - 18.5 °F 40% 30.16 in 12.0 mi Variable 2.3 mph - N/A   Mostly Cloudy
10:56 PM 37.9 °F 33.5 °F 19.0 °F 47% 30.16 in 12.0 mi Variable 5.8 mph - N/A   Partly Cloudy
11:56 PM 35.4 °F 32.6 °F 19.6 °F 53% 30.16 in 12.0 mi SW 3.5 mph - N/A   Clear